Regional Weather Roundup
Issued by NWS Sioux Falls, SD

Home | Current Version | Previous Version | Graphics & Text | Print | Product List | Glossary On
Versions: 1 2 3 4 5 6 7 8 9 10 11 12 13 14 15 16 17 18 19 20 21 22 23 24 25 26 27 28 29 30 31 32 33 34 35 36 37 38 39 40 41 42 43 44 45 46 47 48 49 50
000
ASUS43 KFSD 260102
RWRFSD

WEATHER ROUNDUP FOR SE SOUTH DAKOTA/SW MINNESOTA/NW IOWA
NATIONAL WEATHER SERVICE SIOUX FALLS SD
800 PM CDT MON JUL 25 2016

NOTE: "FAIR" INDICATES FEW OR NO CLOUDS BELOW 12,000 FEET WITH NO
SIGNIFICANT WEATHER AND OR OBSTRUCTIONS TO VISIBILITY.


SDZ038>040-050-052>070-260200-
SOUTHEAST SOUTH DAKOTA

CITY           SKY/WX    TMP DP  RH WIND       PRES   REMARKS
BROOKINGS      CLEAR     80  66  62 S7        30.04S
CHAMBERLAIN    SUNNY     88  56  33 S9        30.00S
HURON          CLEAR     86  57  37 S10       29.98S
MADISON        FAIR      77  66  69 S10       30.05F
MITCHELL       CLEAR     86  58  38 S9        30.01S
SIOUX FALLS    PTCLDY    81  60  48 S10       30.04S
WINNER         FAIR      90  52  27 S15       30.02R
YANKTON        CLEAR     82  63  51 SE6       30.02S
$$

MNZ071-072-080-081-089-090-097-098-260200-
SOUTHWEST MINNESOTA

CITY           SKY/WX    TMP DP  RH WIND       PRES   REMARKS
FAIRMONT       CLEAR     82  66  57 CALM      30.05S
JACKSON        CLEAR     81  64  57 CALM      30.07S
LUVERNE        CLEAR     79  66  65 S5        30.06S
MARSHALL       CLEAR     83  69  62 S5        30.03S
MONTEVIDEO     CLEAR     82  64  54 SW7       30.03S
REDWOOD FALLS  CLEAR     83  66  56 SW6       30.02S
TRACY          CLEAR     81  65  58 S5        30.04F
WINDOM         CLEAR     82  66  57 CALM      30.06S
WORTHINGTON    CLEAR     80  64  58 MISG      30.07S
$$

IAZ001>003-012>014-020>022-031-032-NEZ013-014-SDZ071-260200-
NORTHWEST IOWA

CITY           SKY/WX    TMP DP  RH WIND       PRES   REMARKS
CHEROKEE       CLEAR     82  64  54 CALM      30.05S
DENISON        CLEAR     81  68  65 E3        30.04S
ESTHERVILLE    CLEAR     81  68  64 CALM      30.06S
LE MARS        CLEAR     84  66  54 SE6       30.05S
SHELDON        CLEAR     79  70  73 CALM      30.05S
SIOUX CITY     CLEAR     84  65  52 S5        30.04S
SPENCER        CLEAR     82  69  64 CALM      30.06S
STORM LAKE     CLEAR     79  68  69 S3        30.07S
$$

ABBREVIATIONS USED IN REMARKS
   TC - TEMPERATURE IN CELSIUS
  WCI - WIND CHILL INDEX
   HX - HEAT INDEX
  VSB - VISIBILITY





USA.gov is the U.S. government's official web portal to all federal, state and local government web resources and services.